PP5CI-13 Weather Reports


Display with metric or nautical units.
time (UTC)temp
F
wind
direction
speed
MPH
gust
MPH
rain 1hr
in
rain 24hr
in
rain mn
in
humidity
%
barometer
mb
20260508003525 75 0.0 0.0 0.00 0.00 0.00 99 1009.2
20260508002525 75 0.0 0.0 0.00 0.00 0.00 99 1009.2
20260508001524 75 0.0 0.0 0.00 0.00 0.00 99 1009.2
20260508000525 75 0.0 0.0 0.00 0.00 0.00 99 1009.2
20260507235524 75 0.0 0.0 0.00 0.00 0.00 99 1009.2
20260507234524 75 0.0 0.0 0.00 0.00 0.00 99 1009.2
20260507233525 75 121 1.0 2.0 0.00 0.00 0.00 98 1009.2
20260507232600 76 0.0 0.0 0.00 0.00 0.00 98 1009.2
20260507230537 76 0.0 0.0 0.00 0.00 0.00 98 1009.2
20260507225525 76 0.0 0.0 0.00 0.00 0.00 98 1009.2
20260507224525 76 133 1.0 3.0 0.00 0.00 0.00 98 1009.2
20260507223525 76 127 2.0 3.0 0.00 0.00 0.00 97 1009.2
20260507222525 76 113 2.0 3.0 0.00 0.00 0.00 97 1009.2
20260507221524 76 122 2.0 3.0 0.00 0.00 0.00 96 1009.2
20260507220525 77 120 1.0 3.0 0.00 0.00 0.00 95 1009.2
20260507215525 77 138 1.0 2.0 0.00 0.00 0.00 94 1009.2
20260507214525 77 135 1.0 2.0 0.00 0.00 0.00 93 1009.2
20260507213525 77 128 1.0 2.0 0.00 0.00 0.00 93 1008.2
20260507212524 78 172 0.0 2.0 0.00 0.00 0.00 93 1008.2
20260507211525 78 183 1.0 2.0 0.00 0.00 0.00 93 1008.2
20260507210525 78 265 1.0 3.0 0.00 0.00 0.00 93 1008.2
20260507205524 78 260 3.0 4.0 0.00 0.00 0.00 93 1008.2
20260507204524 78 266 3.0 5.0 0.00 0.00 0.00 92 1008.2
20260507203524 78 270 4.0 6.0 0.00 0.00 0.00 92 1008.2
20260507202525 78 276 5.0 7.0 0.00 0.00 0.00 92 1008.2
20260507201525 78 267 4.0 7.0 0.00 0.00 0.00 91 1008.2
20260507200525 79 270 4.0 7.0 0.00 0.00 0.00 91 1008.2
20260507195525 79 221 4.0 6.0 0.00 0.00 0.00 90 1008.2
20260507194525 79 266 6.0 9.0 0.00 0.00 0.00 90 1008.2
20260507193525 79 272 7.0 11.0 0.00 0.00 0.00 90 1008.2
20260507192525 79 269 7.0 9.0 0.00 0.00 0.00 89 1008.2
20260507191525 79 269 6.0 9.0 0.00 0.00 0.00 89 1008.2
20260507190525 79 272 7.0 11.0 0.00 0.00 0.00 88 1008.2
20260507185525 80 261 5.0 8.0 0.00 0.00 0.00 88 1008.2
20260507184528 80 258 7.0 10.0 0.00 0.00 0.00 87 1008.4
20260507183525 80 271 5.0 9.0 0.00 0.00 0.00 87 1009.2
20260507182525 80 272 8.0 11.0 0.00 0.00 0.00 86 1009.2
20260507181527 81 273 8.0 12.0 0.00 0.00 0.00 84 1009.2
20260507180525 82 272 6.0 8.0 0.00 0.00 0.00 83 1009.2
20260507175521 82 279 4.0 5.0 0.00 0.00 0.00 82
20260507174527 82 270 4.0 5.0 0.00 0.00 0.00 82
20260507173524 82 273 4.0 6.0 0.00 0.00 0.00 82
20260507172520 82 270 6.0 7.0 0.00 0.00 0.00 81
20260507171527 84 245 3.0 6.0 0.00 0.00 0.00 78
20260507170525 84 268 6.0 8.0 0.00 0.00 0.00 78 1010.3
20260507165520 84 267 3.0 6.0 0.00 0.00 0.00 78 1010.3
20260507164526 85 220 2.0 4.0 0.00 0.00 0.00 76 1010.3
20260507163525 84 267 3.0 5.0 0.00 0.00 0.00 77 1011.3
20260507162520 85 148 1.0 4.0 0.00 0.00 0.00 76 1011.3
20260507161526 84 151 1.0 3.0 0.00 0.00 0.00 77 1011.3
20260507160525 84 121 2.0 4.0 0.00 0.00 0.00 77 1011.3
20260507155520 84 145 1.0 3.0 0.00 0.00 0.00 77
20260507154526 84 125 2.0 4.0 0.00 0.00 0.00 77
20260507153525 83 119 3.0 4.0 0.00 0.00 0.00 79
20260507152519 82 137 1.0 2.0 0.00 0.00 0.00 81
20260507151526 81 121 2.0 3.0 0.00 0.00 0.00 81
20260507150626 80 113 1.0 2.0 0.00 0.00 0.00 84
20260507145533 81 2.0 2.0 0.00 0.00 0.00 81 1013.2
20260507144526 80 119 2.0 3.0 0.00 0.00 0.00 84 1013.2
20260507143525 80 118 2.0 4.0 0.00 0.00 0.00 83 1014.2
20260507142520 79 125 3.0 4.0 0.00 0.00 0.00 85 1014.2
20260507141526 78 142 1.0 2.0 0.00 0.00 0.00 86 1014.2
20260507140525 77 137 2.0 3.0 0.00 0.00 0.00 89 1014.2
20260507135519 77 131 2.0 3.0 0.00 0.00 0.00 89 1014.2
20260507134557 0 0.0 0.0 0.00 0.00 0.00
20260507133738 78 0.0 0.0 0.00 0.00 0.00 86 1014.2
20260507132520 78 0.0 0.0 0.00 0.00 0.00 86 1014.2
20260507131525 78 142 1.0 2.0 0.00 0.00 0.00 87 1014.2
20260507130525 77 135 0.0 2.0 0.00 0.00 0.00 87 1014.2
20260507125520 77 0.0 0.0 0.00 0.00 0.00 88 1014.2
20260507124526 77 130 1.0 2.0 0.00 0.00 0.00 88 1014.2
20260507123525 77 145 1.0 2.0 0.00 0.00 0.00 89 1014.2
20260507122520 76 0.0 0.0 0.00 0.00 0.00 91 1014.2
20260507121526 76 0.0 0.0 0.00 0.00 0.00 91 1014.2
20260507120525 76 0.0 0.0 0.00 0.00 0.00 92 1014.2
20260507115520 76 0.0 0.0 0.00 0.00 0.00 93 1014.2
20260507114526 75 0.0 0.0 0.00 0.00 0.00 94 1014.2
20260507113525 75 0.0 0.0 0.00 0.00 0.00 95 1014.2
20260507112519 74 0.0 0.0 0.00 0.00 0.00 96 1014.2
20260507111526 74 138 1.0 2.0 0.00 0.00 0.00 97
20260507110525 74 0.0 0.0 0.00 0.00 0.00 98
20260507105520 73 0.0 0.0 0.00 0.00 0.00 99
20260507104526 73 0.0 0.0 0.00 0.00 0.00 99
20260507103525 73 0.0 0.0 0.00 0.00 0.00 99
20260507102520 73 0.0 0.0 0.00 0.00 0.00 99
20260507101525 73 0.0 0.0 0.00 0.00 0.00 99 1014.2
20260507100525 73 0.0 0.0 0.00 0.00 0.00 99 1014.2
20260507095520 73 0.0 0.0 0.00 0.00 0.00 99 1014.2
20260507094526 73 0.0 0.0 0.00 0.00 0.00 99 1014.2
20260507093525 73 0.0 0.0 0.00 0.00 0.00 99 1014.2
20260507092520 73 0.0 0.0 0.00 0.00 0.00 99 1014.2
20260507091526 73 0.0 0.0 0.00 0.00 0.00 99 1014.2
20260507090525 73 0.0 0.0 0.00 0.00 0.00 99 1014.2
20260507085520 73 180 0.0 1.0 0.00 0.00 0.00 99 1014.2
20260507084525 73 0.0 0.0 0.00 0.00 0.00 99 1014.2
20260507083525 73 0.0 0.0 0.00 0.00 0.00 99 1014.2
20260507082519 73 0.0 0.0 0.00 0.00 0.00 99 1014.2
20260507081526 74 0.0 0.0 0.00 0.00 0.00 99 1014.2
20260507080525 74 0.0 0.0 0.00 0.00 0.00 99 1014.2
20260507075520 74 0.0 0.0 0.00 0.00 0.00 99 1014.2
20260507074533 0 0.0 0.0 0.00 0.00 0.00
20260507073606 74 0.0 0.0 0.00 0.00 0.00 99 1014.2
20260507072520 74 0.0 0.0 0.00 0.00 0.00 99 1014.2
20260507071656 74 0.0 0.0 0.00 0.00 0.00 99 1014.2
20260507064141 0 0.0 0.0 0.00 0.00 0.00
20260507063026 74 263 2.0 3.0 0.00 0.00 0.00 99 1015.2
20260507062032 74 0.0 0.0 0.00 0.00 0.00 99 1015.2
20260507061020 74 0.0 0.0 0.00 0.00 0.00 99 1015.2
20260507060021 74 0.0 0.0 0.00 0.00 0.00 99 1015.2
20260507055101 74 0.0 0.0 0.00 0.00 0.00 99 1015.2
20260507054038 74 0.0 0.0 0.00 0.00 0.00 99 1015.2
20260507053125 74 0.0 0.0 0.00 0.00 0.00 99 1016.2
20260507052444 0 143 1.0 2.0 0.00 0.00 0.00
20260507051150 0 0.0 0.0 0.00 0.00 0.00
20260507050245 0 0.0 0.0 0.00 0.00 0.00
20260507045229 74 0.0 0.0 0.00 0.00 0.00 99 1016.2
20260507044030 74 0.0 0.0 0.00 0.00 0.00 99 1016.2
20260507043044 74 113 0.0 2.0 0.00 0.00 0.00 99 1016.2
20260507042108 74 0.0 0.0 0.00 0.00 0.00 99 1016.2
20260507041020 74 0.0 0.0 0.00 0.00 0.00 99 1016.2
20260507040022 0 0.0 0.0 0.00 0.00 0.00
20260507035206 0 0.0 0.0 0.00 0.00 0.00
20260507034029 74 0.0 0.0 0.00 0.00 0.00 99 1016.2
20260507033102 0 0.0 0.0 0.00 0.00 0.00
20260507032350 75 0.0 0.0 0.00 0.00 0.00 99 1017.2
20260507031038 0 0.0 0.0 0.00 0.00 0.00
20260507025325 0 0.0 0.0 0.00 0.00 0.00
20260507024022 75 120 1.0 2.0 0.00 0.00 0.00 99 1017.2
20260507023026 75 0.0 0.0 0.00 0.00 0.00 99 1017.2
20260507022031 74 0.0 0.0 0.00 0.00 0.00 99 1017.2
20260507021020 74 135 1.0 2.0 0.00 0.00 0.00 99 1017.2
20260507020021 74 147 0.0 2.0 0.00 0.00 0.00 99 1017.2
20260507015021 74 0.0 0.0 0.00 0.00 0.00 99 1017.2
20260507014021 74 113 0.0 2.0 0.00 0.00 0.00 99 1017.2
20260507013026 74 0.0 0.0 0.00 0.00 0.00 99 1017.2
20260507012032 74 131 0.0 2.0 0.00 0.00 0.00 99 1017.2
20260507011020 74 132 1.0 2.0 0.00 0.00 0.00 99 1017.2
20260507010022 74 124 2.0 2.0 0.00 0.00 0.00 99 1017.2
20260507005022 74 121 2.0 3.0 0.00 0.00 0.00 99 1017.2